Weather History for KVER - February, 2013

Change the Weather History Date:

Sunday, February 24, 2013

  Actual Average Record
Temperature  
Mean Temperature 28 °F -  
Max Temperature 46 °F 45 °F 65 °F (1958)
Min Temperature 11 °F 26 °F 2 °F (1989)
Degree Days  
Heating Degree Days 36    
Moisture  
Dew Point 19 °F    
Average Humidity 67    
Maximum Humidity 95    
Minimum Humidity 37    
Precipitation  
Precipitation 0.00 in - - ()
Sea Level Pressure  
Sea Level Pressure 30.02 in    
Wind  
Wind Speed 3 mph (East)    
Max Wind Speed 10 mph    
Max Gust Speed -    
Visibility 9 miles    
Events      
Averages and records for this station are not official NWS values.
T = Trace of Precipitation, MM = Missing Value Source: NWS Daily Summary

Daily Weather History Graph

Daily Weather History Graph

Search for Another Location

Airport or City:

Trip Planner

Search our weather history database for the weather conditions in past years. The results will help you decide how hot, cold, wet, or windy it might be!

Date:

Astronomy

Feb. 24, 2013 Rise Set
Actual Time 6:49 AM CST 5:58 PM CST
Civil Twilight 6:22 AM CST 6:25 PM CST
Nautical Twilight 5:52 AM CST 6:56 PM CST
Astronomical Twilight 5:21 AM CST 7:27 PM CST
Moon 5:10 PM CST (2/24) 5:47 AM CST (2/24)
Length of Visible Light 12h 02m
Length of Day
11h 08m
Waxing Gibbous, 99% of the Moon is Illuminated
Feb 24
Waxing Gibbous
Feb 25
Full
Mar 4
Last Quarter
Mar 11
New
Mar 19
First Quarter

Hourly Weather History & Observations

Time (CST) Temp. Windchill Dew Point Humidity Pressure Visibility Wind Dir Wind Speed Gust Speed Precip Events Conditions
12:15 AM 17.1 °F - 14.5 °F 90% 30.01 in 10.0 mi Calm Calm - N/A   Clear
12:35 AM 17.2 °F - 14.7 °F 90% 30.01 in 10.0 mi Calm Calm - N/A   Clear
12:55 AM 17.6 °F - 14.9 °F 89% 30.02 in 10.0 mi Calm Calm - N/A   Clear
1:15 AM 17.4 °F - 13.8 °F 86% 30.02 in 10.0 mi Calm Calm - N/A   Clear
1:35 AM 16.0 °F - 14.0 °F 92% 30.02 in 7.0 mi Calm Calm - N/A   Clear
1:55 AM 15.3 °F 9.6 °F 14.0 °F 95% 30.02 in 7.0 mi SE 3.5 mph - N/A   Clear
2:15 AM 14.5 °F - 13.1 °F 94% 30.02 in 10.0 mi Calm Calm - N/A   Clear
2:35 AM 14.7 °F - 13.5 °F 95% 30.02 in 7.0 mi Calm Calm - N/A   Clear
2:55 AM 14.4 °F - 12.9 °F 94% 30.01 in 5.0 mi Calm Calm - N/A   Clear
3:15 AM 14.0 °F - 12.9 °F 95% 30.01 in 10.0 mi Calm Calm - N/A   Clear
3:35 AM 13.1 °F 7.1 °F 11.7 °F 94% 30.01 in 7.0 mi South 3.5 mph - N/A   Clear
3:55 AM 12.4 °F - 10.9 °F 94% 30.01 in 7.0 mi Calm Calm - N/A   Clear
4:15 AM 12.7 °F - 11.5 °F 95% 30.01 in 7.0 mi Calm Calm - N/A   Clear
4:35 AM 12.9 °F - 11.7 °F 95% 30.02 in 7.0 mi Calm Calm - N/A   Clear
4:55 AM 13.5 °F - 12.0 °F 94% 30.03 in 7.0 mi Calm Calm - N/A   Clear
5:15 AM 12.6 °F - 10.9 °F 93% 30.03 in 7.0 mi Calm Calm - N/A   Clear
5:35 AM 12.0 °F 4.1 °F 10.4 °F 93% 30.03 in 7.0 mi SE 4.6 mph - N/A   Clear
5:55 AM 11.3 °F 3.3 °F 9.5 °F 92% 30.03 in 7.0 mi East 4.6 mph - N/A   Clear
6:15 AM 12.9 °F 6.9 °F 11.7 °F 95% 30.03 in 7.0 mi East 3.5 mph - N/A   Clear
6:35 AM 13.1 °F - 11.7 °F 94% 30.03 in 7.0 mi Calm Calm - N/A   Clear
6:55 AM 13.3 °F - 11.7 °F 93% 30.04 in 5.0 mi Calm Calm - N/A   Clear
7:15 AM 11.8 °F - 10.2 °F 93% 30.05 in 5.0 mi Calm Calm - N/A   Clear
7:35 AM 12.7 °F - 11.3 °F 94% 30.05 in 5.0 mi Calm Calm - N/A   Clear
7:55 AM 14.4 °F - 12.9 °F 94% 30.06 in 5.0 mi Calm Calm - N/A   Clear
8:15 AM 16.2 °F 10.6 °F 14.7 °F 94% 30.06 in 5.0 mi East 3.5 mph - N/A   Clear
8:35 AM 17.8 °F - 16.3 °F 94% 30.07 in 7.0 mi Calm Calm - N/A   Clear
8:55 AM 19.9 °F - 18.0 °F 92% 30.07 in 7.0 mi Calm Calm - N/A   Clear
9:15 AM 23.4 °F 15.2 °F 20.1 °F 87% 30.06 in 10.0 mi ESE 6.9 mph - N/A   Clear
9:35 AM 27.7 °F 21.3 °F 20.5 °F 74% 30.07 in 10.0 mi ESE 5.8 mph - N/A   Clear
9:55 AM 30.6 °F 25.8 °F 20.1 °F 65% 30.08 in 10.0 mi ESE 4.6 mph - N/A   Clear
10:15 AM 33.1 °F 30.0 °F 20.8 °F 61% 30.08 in 10.0 mi ESE 3.5 mph - N/A   Clear
10:35 AM 35.4 °F 31.5 °F 21.7 °F 58% 30.08 in 10.0 mi East 4.6 mph - N/A   Clear
10:55 AM 37.6 °F 34.0 °F 21.9 °F 53% 30.08 in 10.0 mi East 4.6 mph - N/A   Clear
11:15 AM 38.5 °F 34.1 °F 21.9 °F 51% 30.07 in 10.0 mi SE 5.8 mph - N/A   Clear
11:35 AM 39.6 °F - 21.2 °F 48% 30.07 in 10.0 mi Calm Calm - N/A   Clear
11:55 AM 40.8 °F 36.9 °F 21.6 °F 46% 30.06 in 10.0 mi SE 5.8 mph - N/A   Clear
12:15 PM 42.3 °F 39.4 °F 21.4 °F 43% 30.05 in 10.0 mi SE 4.6 mph - N/A   Clear
12:35 PM 43.7 °F 40.3 °F 21.9 °F 42% 30.04 in 10.0 mi East 5.8 mph - N/A   Clear
12:55 PM 44.2 °F 41.0 °F 21.2 °F 40% 30.04 in 10.0 mi ESE 5.8 mph - N/A   Clear
1:15 PM 45.0 °F 41.2 °F 20.8 °F 38% 30.03 in 10.0 mi East 6.9 mph - N/A   Clear
1:35 PM 45.3 °F 42.3 °F 21.6 °F 39% 30.03 in 10.0 mi ENE 5.8 mph - N/A   Clear
1:55 PM 45.9 °F 42.9 °F 21.9 °F 39% 30.02 in 10.0 mi East 5.8 mph - N/A   Clear
2:15 PM 46.4 °F 43.5 °F 21.0 °F 37% 30.01 in 10.0 mi East 5.8 mph - N/A   Clear
2:35 PM 46.4 °F 44.3 °F 21.0 °F 37% 30.00 in 10.0 mi East 4.6 mph - N/A   Clear
2:55 PM 46.6 °F - 21.4 °F 37% 29.99 in 10.0 mi East 8.1 mph - N/A   Clear
3:15 PM 46.4 °F 42.4 °F 21.7 °F 38% 29.98 in 10.0 mi East 8.1 mph - N/A   Clear
3:35 PM 45.9 °F 41.7 °F 22.6 °F 40% 29.98 in 10.0 mi East 8.1 mph - N/A   Clear
3:55 PM 45.7 °F 41.5 °F 22.5 °F 40% 29.98 in 10.0 mi East 8.1 mph - N/A   Clear
4:15 PM 45.9 °F 41.7 °F 22.5 °F 40% 29.97 in 10.0 mi East 8.1 mph - N/A   Clear
4:35 PM 45.7 °F 40.6 °F 22.5 °F 40% 29.96 in 10.0 mi East 10.4 mph - N/A   Clear
4:55 PM 44.6 °F 40.2 °F 23.4 °F 43% 29.96 in 10.0 mi East 8.1 mph - N/A   Clear
5:15 PM 44.2 °F 39.7 °F 23.2 °F 43% 29.97 in 10.0 mi East 8.1 mph - N/A   Clear
5:35 PM 43.7 °F 40.3 °F 22.8 °F 44% 29.97 in 10.0 mi East 5.8 mph - N/A   Clear
5:55 PM 43.3 °F 39.9 °F 22.3 °F 43% 29.97 in 10.0 mi ENE 5.8 mph - N/A   Clear
6:15 PM 42.4 °F 38.1 °F 22.3 °F 45% 29.98 in 10.0 mi ENE 6.9 mph - N/A   Clear
6:35 PM 40.8 °F 35.6 °F 23.2 °F 50% 29.98 in 10.0 mi ENE 8.1 mph - N/A   Clear
6:55 PM 39.9 °F 35.1 °F 23.5 °F 52% 29.98 in 10.0 mi ENE 6.9 mph - N/A   Clear
7:15 PM 39.0 °F 34.0 °F 23.7 °F 54% 29.98 in 10.0 mi ENE 6.9 mph - N/A   Clear
7:35 PM 38.3 °F 33.2 °F 23.7 °F 56% 29.98 in 10.0 mi NE 6.9 mph - N/A   Clear
7:55 PM 37.4 °F 32.1 °F 23.7 °F 58% 29.98 in 10.0 mi ENE 6.9 mph - N/A   Clear
8:15 PM 36.9 °F 30.7 °F 23.9 °F 59% 29.97 in 10.0 mi ENE 8.1 mph - N/A   Clear
8:35 PM 37.2 °F 31.2 °F 23.7 °F 58% 29.98 in 10.0 mi ENE 8.1 mph - N/A   Clear
8:55 PM 37.2 °F 31.9 °F 23.7 °F 58% 29.98 in 10.0 mi ENE 6.9 mph - N/A   Clear
9:15 PM 37.0 °F 30.4 °F 23.7 °F 59% 29.98 in 10.0 mi ENE 9.2 mph - N/A   Clear
9:35 PM 36.9 °F 30.1 °F 23.7 °F 59% 29.99 in 10.0 mi East 9.2 mph - N/A   Clear
9:55 PM 36.9 °F 30.1 °F 23.9 °F 59% 29.99 in 10.0 mi East 9.2 mph - N/A   Clear
10:15 PM 36.5 °F - 23.9 °F 60% 29.99 in 10.0 mi Calm Calm - N/A   Clear
10:35 PM 36.0 °F - 23.7 °F 61% 30.00 in 10.0 mi Calm Calm - N/A   Clear
10:55 PM 35.2 °F 30.3 °F 23.7 °F 63% 30.00 in 10.0 mi ENE 5.8 mph - N/A   Clear
11:15 PM 34.7 °F 30.6 °F 23.5 °F 64% 30.01 in 10.0 mi ENE 4.6 mph - N/A   Clear
11:35 PM 33.8 °F 30.8 °F 23.4 °F 66% 30.02 in 10.0 mi NE 3.5 mph - N/A   Clear
11:55 PM 32.2 °F 26.7 °F 23.4 °F 70% 30.02 in 10.0 mi NE 5.8 mph - N/A   Clear